Weather Data 2026-09-03

Time Wind Dr Wind Spd
mph
Wind Gust
mph
Hum In
%
Humid
%
TempI
F
Temp
F
Raw Bar
in
Tot Rain
in
UV Solar
W/sqm
DailyRain
in
HourRain
in
24HrRain
in
RainRate
in
09/03/26 6:19:56 PM 32 5.0 19.0 61 44 76.0 80.2 29.849 7.41 0.0 116 0.00 0.00 0.00 0.00
09/03/26 6:20:41 PM 31 3.0 19.0 61 44 76.0 80.2 29.850 7.41 0.0 95 0.00 0.00 0.00 0.00
09/03/26 6:21:14 PM 31 5.0 19.0 61 45 76.0 80.2 29.850 7.41 0.0 95 0.00 0.00 0.00 0.00
09/03/26 6:22:24 PM 28 5.0 19.0 61 45 76.0 80.1 29.850 7.41 0.0 95 0.00 0.00 0.00 0.00
09/03/26 6:23:15 PM 31 9.0 19.0 61 45 75.9 80.1 29.849 7.41 0.0 95 0.00 0.00 0.00 0.00
09/03/26 6:24:28 PM 32 6.0 19.0 61 45 76.0 80.0 29.850 7.41 0.0 84 0.00 0.00 0.00 0.00
09/03/26 6:25:37 PM 31 6.0 19.0 61 45 75.9 79.9 29.849 7.41 0.0 81 0.00 0.00 0.00 0.00
09/03/26 6:26:50 PM 32 2.0 19.0 61 45 75.9 79.8 29.850 7.41 0.0 72 0.00 0.00 0.00 0.00
09/03/26 6:28:03 PM 30 8.0 19.0 61 45 76.0 79.7 29.850 7.41 0.0 72 0.00 0.00 0.00 0.00
09/03/26 6:29:15 PM 31 2.0 19.0 61 45 75.9 79.6 29.850 7.41 0.0 58 0.00 0.00 0.00 0.00
09/03/26 6:30:10 PM 32 8.0 19.0 61 46 75.9 79.5 29.850 7.41 0.0 70 0.00 0.00 0.00 0.00
09/03/26 6:31:16 PM 29 6.0 19.0 61 46 75.8 79.5 29.852 7.41 0.0 63 0.00 0.00 0.00 0.00
09/03/26 6:32:08 PM 30 9.0 19.0 61 46 75.8 79.4 29.852 7.41 0.0 63 0.00 0.00 0.00 0.00
09/03/26 6:33:20 PM 32 4.0 19.0 61 46 75.8 79.3 29.856 7.41 0.0 63 0.00 0.00 0.00 0.00
09/03/26 6:34:12 PM 34 5.0 19.0 61 46 75.8 79.2 29.856 7.41 0.0 25 0.00 0.00 0.00 0.00
09/03/26 6:35:24 PM 31 8.0 19.0 61 46 75.8 79.1 29.852 7.41 0.0 23 0.00 0.00 0.00 0.00
09/03/26 6:36:13 PM 31 2.0 19.0 61 46 75.8 79.1 29.852 7.41 0.0 23 0.00 0.00 0.00 0.00
09/03/26 6:37:25 PM 31 2.0 19.0 61 46 75.8 79.0 29.854 7.41 0.0 23 0.00 0.00 0.00 0.00
09/03/26 6:38:17 PM 29 5.0 19.0 61 47 75.8 79.0 29.854 7.41 0.0 23 0.00 0.00 0.00 0.00
09/03/26 6:39:29 PM 31 3.0 19.0 61 47 75.7 78.9 29.853 7.41 0.0 21 0.00 0.00 0.00 0.00
09/03/26 6:40:21 PM 32 4.0 19.0 61 47 75.7 78.8 29.854 7.41 0.0 21 0.00 0.00 0.00 0.00
09/03/26 6:41:27 PM 32 3.0 19.0 61 47 75.7 78.8 29.855 7.41 0.0 21 0.00 0.00 0.00 0.00
09/03/26 6:42:22 PM 30 2.0 19.0 61 48 75.7 78.7 29.855 7.41 0.0 21 0.00 0.00 0.00 0.00
09/03/26 6:43:34 PM 32 4.0 19.0 61 48 75.7 78.6 29.857 7.41 0.0 21 0.00 0.00 0.00 0.00
09/03/26 6:44:26 PM 30 8.0 19.0 61 48 75.7 78.5 29.854 7.41 0.0 21 0.00 0.00 0.00 0.00
09/03/26 6:45:20 PM 32 1.0 19.0 61 48 75.7 78.4 29.859 7.41 0.0 18 0.00 0.00 0.00 0.00
09/03/26 6:46:27 PM 29 8.0 19.0 61 48 75.7 78.4 29.857 7.41 0.0 18 0.00 0.00 0.00 0.00
09/03/26 6:47:18 PM 32 8.0 19.0 61 48 75.7 78.2 29.855 7.41 0.0 18 0.00 0.00 0.00 0.00
09/03/26 6:48:31 PM 31 2.0 19.0 61 48 75.6 78.1 29.857 7.41 0.0 18 0.00 0.00 0.00 0.00
09/03/26 6:49:22 PM 31 3.0 19.0 61 49 75.7 78.0 29.857 7.41 0.0 18 0.00 0.00 0.00 0.00
09/03/26 6:50:35 PM 31 1.0 19.0 61 49 75.6 77.9 29.858 7.41 0.0 18 0.00 0.00 0.00 0.00
09/03/26 6:51:26 PM 31 2.0 19.0 61 49 75.6 77.8 29.856 7.41 0.0 16 0.00 0.00 0.00 0.00
09/03/26 6:52:33 PM 30 5.0 19.0 61 49 75.6 77.8 29.856 7.41 0.0 14 0.00 0.00 0.00 0.00
09/03/26 6:53:24 PM 28 4.0 19.0 61 49 75.6 77.7 29.858 7.41 0.0 14 0.00 0.00 0.00 0.00
09/03/26 6:54:18 PM 30 5.0 19.0 61 49 75.6 77.6 29.859 7.41 0.0 14 0.00 0.00 0.00 0.00
09/03/26 6:55:28 PM 34 4.0 19.0 61 49 75.5 77.5 29.857 7.41 0.0 12 0.00 0.00 0.00 0.00
09/03/26 6:56:19 PM 31 5.0 19.0 61 49 75.6 77.5 29.856 7.41 0.0 12 0.00 0.00 0.00 0.00
09/03/26 6:57:29 PM 32 2.0 19.0 61 49 75.5 77.4 29.858 7.41 0.0 11 0.00 0.00 0.00 0.00
09/03/26 6:58:20 PM 31 3.0 19.0 61 49 75.5 77.4 29.859 7.41 0.0 11 0.00 0.00 0.00 0.00
09/03/26 6:59:30 PM 32 5.0 19.0 61 49 75.5 77.3 29.858 7.41 0.0 9 0.00 0.00 0.00 0.00
09/03/26 7:00:24 PM 31 9.0 19.0 61 50 75.5 77.2 29.858 7.41 0.0 9 0.00 0.00 0.00 0.00
09/03/26 7:01:34 PM 32 5.0 19.0 61 50 75.5 77.1 29.856 7.41 0.0 9 0.00 0.00 0.00 0.00
09/03/26 7:02:23 PM 28 6.0 19.0 61 50 75.5 77.1 29.858 7.41 0.0 9 0.00 0.00 0.00 0.00
09/03/26 7:03:35 PM 34 3.0 19.0 61 50 75.4 77.0 29.858 7.41 0.0 7 0.00 0.00 0.00 0.00
09/03/26 7:04:27 PM 26 5.0 19.0 61 50 75.5 76.9 29.858 7.41 0.0 7 0.00 0.00 0.00 0.00
09/03/26 7:05:18 PM 32 3.0 19.0 61 50 75.4 76.8 29.859 7.41 0.0 7 0.00 0.00 0.00 0.00
09/03/26 7:06:28 PM 30 3.0 19.0 61 50 75.4 76.7 29.858 7.41 0.0 5 0.00 0.00 0.00 0.00
09/03/26 7:07:19 PM 31 4.0 19.0 61 50 75.4 76.7 29.860 7.41 0.0 5 0.00 0.00 0.00 0.00
09/03/26 7:08:29 PM 32 2.0 19.0 61 50 75.4 76.6 29.859 7.41 0.0 5 0.00 0.00 0.00 0.00
09/03/26 7:09:17 PM 31 6.0 19.0 61 51 75.4 76.6 29.858 7.41 0.0 5 0.00 0.00 0.00 0.00
09/03/26 7:10:30 PM 28 8.0 19.0 61 51 75.4 76.5 29.859 7.41 0.0 5 0.00 0.00 0.00 0.00
09/03/26 7:11:21 PM 31 4.0 19.0 61 51 75.3 76.5 29.859 7.41 0.0 0 0.00 0.00 0.00 0.00
09/03/26 7:12:37 PM 28 4.0 19.0 61 51 75.4 76.4 29.860 7.41 0.0 0 0.00 0.00 0.00 0.00
09/03/26 7:13:25 PM 32 6.0 19.0 61 51 75.4 76.4 29.861 7.41 0.0 0 0.00 0.00 0.00 0.00
09/03/26 7:14:17 PM 31 4.0 19.0 61 51 75.4 76.3 29.861 7.41 0.0 0 0.00 0.00 0.00 0.00
09/03/26 7:15:54 PM 31 2.0 19.0 61 51 75.3 76.2 29.860 7.41 0.0 0 0.00 0.00 0.00 0.00
09/03/26 7:16:21 PM 32 1.0 19.0 61 51 75.3 76.2 29.861 7.41 0.0 0 0.00 0.00 0.00 0.00
09/03/26 7:17:33 PM 32 0.0 19.0 61 51 75.3 76.2 29.862 7.41 0.0 0 0.00 0.00 0.00 0.00
09/03/26 7:18:25 PM 34 1.0 19.0 61 51 75.2 76.1 29.862 7.41 0.0 0 0.00 0.00 0.00 0.00
09/03/26 7:19:34 PM 32 6.0 19.0 61 52 75.3 76.0 29.862 7.41 0.0 0 0.00 0.00 0.00 0.00
09/03/26 7:20:26 PM 31 6.0 19.0 61 52 75.3 76.0 29.860 7.41 0.0 0 0.00 0.00 0.00 0.00
09/03/26 7:21:17 PM 31 2.0 19.0 61 52 75.3 75.9 29.861 7.41 0.0 0 0.00 0.00 0.00 0.00
09/03/26 7:22:30 PM 28 1.0 19.0 61 52 75.3 75.8 29.863 7.41 0.0 0 0.00 0.00 0.00 0.00
09/03/26 7:23:21 PM 32 5.0 19.0 61 52 75.3 75.8 29.862 7.41 0.0 0 0.00 0.00 0.00 0.00
09/03/26 7:24:28 PM 32 1.0 19.0 61 52 75.3 75.7 29.862 7.41 0.0 0 0.00 0.00 0.00 0.00
09/03/26 7:25:19 PM 28 8.0 19.0 61 52 75.3 75.7 29.860 7.41 0.0 0 0.00 0.00 0.00 0.00
09/03/26 7:26:32 PM 34 5.0 19.0 61 52 75.3 75.6 29.864 7.41 0.0 0 0.00 0.00 0.00 0.00
09/03/26 7:27:24 PM 31 5.0 19.0 61 53 75.2 75.5 29.866 7.41 0.0 0 0.00 0.00 0.00 0.00
09/03/26 7:28:36 PM 29 3.0 19.0 61 53 75.2 75.5 29.865 7.41 0.0 0 0.00 0.00 0.00 0.00
09/03/26 7:29:25 PM 30 3.0 19.0 61 53 75.2 75.5 29.865 7.41 0.0 0 0.00 0.00 0.00 0.00
09/03/26 7:30:40 PM 32 2.0 19.0 61 53 75.2 75.4 29.865 7.41 0.0 0 0.00 0.00 0.00 0.00
09/03/26 7:31:29 PM 31 5.0 19.0 61 53 75.2 75.3 29.864 7.41 0.0 0 0.00 0.00 0.00 0.00
09/03/26 7:32:20 PM 31 6.0 19.0 61 53 75.2 75.2 29.864 7.41 0.0 0 0.00 0.00 0.00 0.00
09/03/26 7:33:33 PM 32 4.0 19.0 61 54 75.2 75.1 29.864 7.41 0.0 0 0.00 0.00 0.00 0.00
09/03/26 7:34:24 PM 34 8.0 19.0 61 54 75.1 75.1 29.864 7.41 0.0 0 0.00 0.00 0.00 0.00
09/03/26 7:35:31 PM 32 6.0 19.0 61 54 75.1 75.0 29.866 7.41 0.0 0 0.00 0.00 0.00 0.00
09/03/26 7:36:22 PM 32 8.0 19.0 61 54 75.1 74.8 29.864 7.41 0.0 0 0.00 0.00 0.00 0.00
09/03/26 7:37:35 PM 29 3.0 19.0 61 55 75.1 74.7 29.867 7.41 0.0 0 0.00 0.00 0.00 0.00
09/03/26 7:38:26 PM 30 3.0 19.0 61 55 75.1 74.5 29.864 7.41 0.0 0 0.00 0.00 0.00 0.00
09/03/26 7:39:18 PM 28 3.0 19.0 61 55 75.1 74.5 29.864 7.41 0.0 0 0.00 0.00 0.00 0.00
09/03/26 7:40:27 PM 31 4.0 19.0 61 55 75.1 74.4 29.865 7.41 0.0 0 0.00 0.00 0.00 0.00
09/03/26 7:41:19 PM 31 6.0 19.0 61 55 75.0 74.3 29.864 7.41 0.0 0 0.00 0.00 0.00 0.00
09/03/26 7:42:31 PM 32 5.0 19.0 61 55 75.0 74.2 29.863 7.41 0.0 0 0.00 0.00 0.00 0.00
09/03/26 7:43:23 PM 32 3.0 19.0 61 55 75.0 74.2 29.865 7.41 0.0 0 0.00 0.00 0.00 0.00
09/03/26 7:44:35 PM 26 3.0 19.0 61 56 75.0 74.1 29.866 7.41 0.0 0 0.00 0.00 0.00 0.00
09/03/26 7:45:27 PM 30 5.0 19.0 61 56 75.0 74.1 29.866 7.41 0.0 0 0.00 0.00 0.00 0.00
09/03/26 7:46:33 PM 31 3.0 19.0 61 56 74.9 74.0 29.867 7.41 0.0 0 0.00 0.00 0.00 0.00
09/03/26 7:47:25 PM 34 5.0 19.0 61 56 75.0 74.0 29.864 7.41 0.0 0 0.00 0.00 0.00 0.00
09/03/26 7:48:16 PM 31 4.0 19.0 61 56 74.9 73.9 29.865 7.41 0.0 0 0.00 0.00 0.00 0.00
09/03/26 7:49:29 PM 34 1.0 19.0 61 56 74.9 73.9 29.866 7.41 0.0 0 0.00 0.00 0.00 0.00
09/03/26 7:50:20 PM 29 2.0 19.0 61 56 74.9 73.9 29.866 7.41 0.0 0 0.00 0.00 0.00 0.00
09/03/26 7:51:30 PM 30 0.0 19.0 61 56 74.9 73.8 29.867 7.41 0.0 0 0.00 0.00 0.00 0.00
09/03/26 7:52:22 PM 32 1.0 19.0 61 56 74.9 73.8 29.864 7.41 0.0 0 0.00 0.00 0.00 0.00
09/03/26 7:53:31 PM 32 2.0 19.0 61 56 74.9 73.8 29.866 7.41 0.0 0 0.00 0.00 0.00 0.00
09/03/26 7:54:26 PM 31 2.0 19.0 61 56 74.9 73.8 29.866 7.41 0.0 0 0.00 0.00 0.00 0.00
09/03/26 7:55:35 PM 30 0.0 19.0 61 56 74.9 73.7 29.866 7.41 0.0 0 0.00 0.00 0.00 0.00
09/03/26 7:56:24 PM 32 2.0 19.0 61 57 74.9 73.7 29.869 7.41 0.0 0 0.00 0.00 0.00 0.00
09/03/26 7:57:15 PM 31 2.0 19.0 61 57 74.8 73.7 29.864 7.41 0.0 0 0.00 0.00 0.00 0.00
09/03/26 7:58:28 PM 32 5.0 19.0 61 57 74.9 73.7 29.869 7.41 0.0 0 0.00 0.00 0.00 0.00
09/03/26 7:59:19 PM 34 8.0 19.0 61 57 74.8 73.6 29.867 7.41 0.0 0 0.00 0.00 0.00 0.00
09/03/26 8:00:32 PM 31 6.0 19.0 61 57 74.8 73.5 29.867 7.41 0.0 0 0.00 0.00 0.00 0.00
09/03/26 8:01:24 PM 34 4.0 19.0 61 57 74.8 73.5 29.867 7.41 0.0 0 0.00 0.00 0.00 0.00
09/03/26 8:02:33 PM 31 3.0 19.0 61 57 74.7 73.4 29.867 7.41 0.0 0 0.00 0.00 0.00 0.00
09/03/26 8:03:25 PM 34 3.0 19.0 61 57 74.7 73.4 29.866 7.41 0.0 0 0.00 0.00 0.00 0.00
09/03/26 8:04:37 PM 32 5.0 19.0 61 57 74.8 73.3 29.867 7.41 0.0 0 0.00 0.00 0.00 0.00
09/03/26 8:05:26 PM 28 3.0 19.0 61 57 74.8 73.3 29.871 7.41 0.0 0 0.00 0.00 0.00 0.00
09/03/26 8:06:20 PM 31 2.0 19.0 61 58 74.7 73.2 29.869 7.41 0.0 0 0.00 0.00 0.00 0.00
09/03/26 8:07:27 PM 32 4.0 19.0 61 58 74.7 73.1 29.869 7.41 0.0 0 0.00 0.00 0.00 0.00
09/03/26 8:08:18 PM 29 3.0 19.0 61 57 74.6 73.1 29.870 7.41 0.0 0 0.00 0.00 0.00 0.00
09/03/26 8:09:31 PM 31 2.0 19.0 61 58 74.7 73.0 29.870 7.41 0.0 0 0.00 0.00 0.00 0.00
09/03/26 8:10:26 PM 31 2.0 19.0 61 58 74.7 73.0 29.871 7.41 0.0 0 0.00 0.00 0.00 0.00
09/03/26 8:11:17 PM 32 1.0 19.0 61 58 74.6 73.0 29.870 7.41 0.0 0 0.00 0.00 0.00 0.00
09/03/26 8:12:24 PM 29 2.0 19.0 61 58 74.6 72.9 29.869 7.41 0.0 0 0.00 0.00 0.00 0.00
09/03/26 8:13:36 PM 32 1.0 19.0 61 57 74.6 72.9 29.872 7.41 0.0 0 0.00 0.00 0.00 0.00
09/03/26 8:14:28 PM 31 1.0 19.0 61 57 74.6 72.9 29.871 7.41 0.0 0 0.00 0.00 0.00 0.00
09/03/26 8:15:22 PM 30 0.0 19.0 61 57 74.6 72.9 29.873 7.41 0.0 0 0.00 0.00 0.00 0.00
09/03/26 8:16:32 PM 28 1.0 19.0 61 57 74.6 72.9 29.873 7.41 0.0 0 0.00 0.00 0.00 0.00
09/03/26 8:17:23 PM 32 1.0 19.0 61 58 74.6 72.8 29.871 7.41 0.0 0 0.00 0.00 0.00 0.00
09/03/26 8:18:33 PM 32 1.0 19.0 61 58 74.6 72.8 29.873 7.41 0.0 0 0.00 0.00 0.00 0.00
09/03/26 8:19:24 PM 32 0.0 19.0 61 58 74.6 72.8 29.873 7.41 0.0 0 0.00 0.00 0.00 0.00
09/03/26 8:20:34 PM 34 6.0 19.0 61 57 74.6 72.8 29.872 7.41 0.0 0 0.00 0.00 0.00 0.00
09/03/26 8:21:29 PM 30 4.0 19.0 61 56 74.6 72.7 29.873 7.41 0.0 0 0.00 0.00 0.00 0.00
09/03/26 8:22:20 PM 32 4.0 19.0 61 56 74.6 72.7 29.873 7.41 0.0 0 0.00 0.00 0.00 0.00
09/03/26 8:23:26 PM 31 4.0 19.0 61 56 74.5 72.6 29.872 7.41 0.0 0 0.00 0.00 0.00 0.00
09/03/26 8:24:18 PM 30 2.0 19.0 61 57 74.5 72.6 29.873 7.41 0.0 0 0.00 0.00 0.00 0.00
09/03/26 8:25:30 PM 32 4.0 19.0 61 56 74.4 72.5 29.873 7.41 0.0 0 0.00 0.00 0.00 0.00
09/03/26 8:26:22 PM 31 2.0 19.0 61 56 74.4 72.5 29.875 7.41 0.0 0 0.00 0.00 0.00 0.00
09/03/26 8:27:34 PM 30 2.0 19.0 61 56 74.4 72.4 29.874 7.41 0.0 0 0.00 0.00 0.00 0.00
09/03/26 8:28:20 PM 31 2.0 19.0 61 56 74.4 72.4 29.874 7.41 0.0 0 0.00 0.00 0.00 0.00
09/03/26 8:29:32 PM 31 3.0 19.0 61 56 74.4 72.3 29.875 7.41 0.0 0 0.00 0.00 0.00 0.00
09/03/26 8:30:45 PM 30 0.0 19.0 61 56 74.4 72.3 29.875 7.41 0.0 0 0.00 0.00 0.00 0.00
09/03/26 8:31:36 PM 31 0.0 19.0 61 57 74.4 72.2 29.877 7.41 0.0 0 0.00 0.00 0.00 0.00
09/03/26 8:32:28 PM 34 0.0 19.0 61 57 74.3 72.2 29.876 7.41 0.0 0 0.00 0.00 0.00 0.00
09/03/26 8:33:20 PM 31 0.0 19.0 61 57 74.3 72.2 29.875 7.41 0.0 0 0.00 0.00 0.00 0.00
09/03/26 8:34:29 PM 28 1.0 19.0 61 57 74.3 72.2 29.877 7.41 0.0 0 0.00 0.00 0.00 0.00
09/03/26 8:35:21 PM 32 1.0 19.0 61 57 74.3 72.2 29.879 7.41 0.0 0 0.00 0.00 0.00 0.00
09/03/26 8:36:33 PM 32 1.0 19.0 61 57 74.3 72.1 29.877 7.41 0.0 0 0.00 0.00 0.00 0.00
09/03/26 8:37:25 PM 32 2.0 19.0 61 57 74.3 72.1 29.877 7.41 0.0 0 0.00 0.00 0.00 0.00
09/03/26 8:38:38 PM 30 1.0 19.0 61 57 74.3 72.1 29.876 7.41 0.0 0 0.00 0.00 0.00 0.00
09/03/26 8:39:23 PM 32 0.0 19.0 61 57 74.2 72.1 29.877 7.41 0.0 0 0.00 0.00 0.00 0.00
09/03/26 8:40:36 PM 32 1.0 19.0 61 57 74.2 72.0 29.879 7.41 0.0 0 0.00 0.00 0.00 0.00
09/03/26 8:41:27 PM 31 1.0 19.0 61 57 74.2 72.0 29.878 7.41 0.0 0 0.00 0.00 0.00 0.00
09/03/26 8:42:19 PM 32 0.0 19.0 61 57 74.2 71.9 29.879 7.41 0.0 0 0.00 0.00 0.00 0.00
09/03/26 8:43:31 PM 28 2.0 19.0 61 57 74.2 71.9 29.878 7.41 0.0 0 0.00 0.00 0.00 0.00
09/03/26 8:44:26 PM 34 4.0 19.0 61 57 74.1 71.9 29.880 7.41 0.0 0 0.00 0.00 0.00 0.00
09/03/26 8:45:32 PM 31 4.0 19.0 61 57 74.1 71.8 29.878 7.41 0.0 0 0.00 0.00 0.00 0.00
09/03/26 8:46:24 PM 34 3.0 19.0 61 57 74.1 71.7 29.882 7.41 0.0 0 0.00 0.00 0.00 0.00
09/03/26 8:47:15 PM 31 4.0 19.0 61 56 74.1 71.7 29.883 7.41 0.0 0 0.00 0.00 0.00 0.00
09/03/26 8:48:28 PM 32 2.0 19.0 61 56 74.1 71.6 29.882 7.41 0.0 0 0.00 0.00 0.00 0.00
09/03/26 8:49:20 PM 32 4.0 19.0 61 56 74.1 71.6 29.881 7.41 0.0 0 0.00 0.00 0.00 0.00
09/03/26 8:50:29 PM 32 4.0 19.0 61 55 74.1 71.5 29.882 7.41 0.0 0 0.00 0.00 0.00 0.00
09/03/26 8:51:21 PM 32 3.0 19.0 61 55 74.0 71.5 29.881 7.41 0.0 0 0.00 0.00 0.00 0.00
09/03/26 8:52:33 PM 32 3.0 19.0 61 55 74.0 71.5 29.881 7.41 0.0 0 0.00 0.00 0.00 0.00
09/03/26 8:53:25 PM 32 3.0 19.0 61 55 74.0 71.5 29.881 7.41 0.0 0 0.00 0.00 0.00 0.00
09/03/26 8:54:34 PM 32 3.0 19.0 61 55 74.0 71.5 29.882 7.41 0.0 0 0.00 0.00 0.00 0.00
09/03/26 8:55:23 PM 32 3.0 19.0 61 55 74.0 71.5 29.882 7.41 0.0 0 0.00 0.00 0.00 0.00
09/03/26 8:56:51 PM 32 3.0 19.0 61 55 74.0 71.5 29.882 7.41 0.0 0 0.00 0.00 0.00 0.00
09/03/26 8:57:21 PM 32 3.0 19.0 61 55 74.1 71.2 29.882 7.41 0.0 0 0.00 0.00 0.00 0.00
09/03/26 8:58:34 PM 32 3.0 19.0 61 54 74.1 71.2 29.883 7.41 0.0 0 0.00 0.00 0.00 0.00
09/03/26 8:59:25 PM 30 2.0 19.0 61 53 74.1 71.1 29.884 7.41 0.0 0 0.00 0.00 0.00 0.00
09/03/26 9:00:41 PM 31 0.0 19.0 61 53 74.0 71.1 29.884 7.41 0.0 0 0.00 0.00 0.00 0.00
09/03/26 9:01:29 PM 32 4.0 19.0 61 54 74.0 71.1 29.883 7.41 0.0 0 0.00 0.00 0.00 0.00
09/03/26 9:02:18 PM 29 3.0 19.0 61 53 73.9 71.1 29.884 7.41 0.0 0 0.00 0.00 0.00 0.00
09/03/26 9:03:30 PM 28 2.0 19.0 61 53 74.0 71.1 29.885 7.41 0.0 0 0.00 0.00 0.00 0.00
09/03/26 9:04:22 PM 31 2.0 19.0 61 53 73.9 71.0 29.884 7.41 0.0 0 0.00 0.00 0.00 0.00
09/03/26 9:05:35 PM 29 3.0 19.0 61 53 73.9 71.0 29.882 7.41 0.0 0 0.00 0.00 0.00 0.00
09/03/26 9:06:29 PM 32 4.0 19.0 61 53 73.8 71.0 29.884 7.41 0.0 0 0.00 0.00 0.00 0.00
09/03/26 9:07:15 PM 27 3.0 19.0 61 52 73.8 71.0 29.885 7.41 0.0 0 0.00 0.00 0.00 0.00
09/03/26 9:08:27 PM 32 3.0 19.0 61 52 73.8 70.9 29.885 7.41 0.0 0 0.00 0.00 0.00 0.00
09/03/26 9:09:22 PM 35 3.0 19.0 61 52 73.8 70.9 29.886 7.41 0.0 0 0.00 0.00 0.00 0.00
09/03/26 9:10:35 PM 28 4.0 19.0 61 52 73.8 70.9 29.885 7.41 0.0 0 0.00 0.00 0.00 0.00
09/03/26 9:11:26 PM 31 2.0 19.0 61 52 73.8 70.9 29.887 7.41 0.0 0 0.00 0.00 0.00 0.00
09/03/26 9:12:33 PM 32 3.0 19.0 61 52 73.7 70.8 29.886 7.41 0.0 0 0.00 0.00 0.00 0.00
09/03/26 9:13:24 PM 30 3.0 19.0 61 52 73.7 70.9 29.887 7.41 0.0 0 0.00 0.00 0.00 0.00
09/03/26 9:14:16 PM 30 2.0 19.0 61 51 73.7 70.8 29.885 7.41 0.0 0 0.00 0.00 0.00 0.00
09/03/26 9:15:31 PM 35 2.0 19.0 61 51 73.7 70.8 29.883 7.41 0.0 0 0.00 0.00 0.00 0.00
09/03/26 9:16:20 PM 31 3.0 19.0 61 51 73.6 70.8 29.886 7.41 0.0 0 0.00 0.00 0.00 0.00
09/03/26 9:17:32 PM 32 4.0 19.0 61 51 73.7 70.8 29.885 7.41 0.0 0 0.00 0.00 0.00 0.00
09/03/26 9:18:21 PM 31 4.0 19.0 61 51 73.7 70.8 29.890 7.41 0.0 0 0.00 0.00 0.00 0.00
09/03/26 9:19:34 PM 30 3.0 19.0 61 51 73.6 70.8 29.886 7.41 0.0 0 0.00 0.00 0.00 0.00
09/03/26 9:20:25 PM 32 1.0 19.0 61 51 73.6 70.7 29.887 7.41 0.0 0 0.00 0.00 0.00 0.00
09/03/26 9:21:17 PM 32 3.0 19.0 61 51 73.6 70.7 29.887 7.41 0.0 0 0.00 0.00 0.00 0.00
09/03/26 9:22:29 PM 32 2.0 19.0 61 51 73.6 70.7 29.887 7.41 0.0 0 0.00 0.00 0.00 0.00
09/03/26 9:23:18 PM 29 3.0 19.0 61 51 73.5 70.6 29.888 7.41 0.0 0 0.00 0.00 0.00 0.00
09/03/26 9:24:28 PM 31 3.0 19.0 61 52 73.6 70.6 29.889 7.41 0.0 0 0.00 0.00 0.00 0.00
09/03/26 9:25:22 PM 32 4.0 19.0 61 52 73.5 70.6 29.890 7.41 0.0 0 0.00 0.00 0.00 0.00
09/03/26 9:26:32 PM 31 4.0 19.0 61 52 73.5 70.5 29.889 7.41 0.0 0 0.00 0.00 0.00 0.00
09/03/26 9:27:26 PM 32 3.0 19.0 61 51 73.5 70.5 29.888 7.41 0.0 0 0.00 0.00 0.00 0.00
09/03/26 9:28:15 PM 32 2.0 19.0 61 51 73.5 70.5 29.888 7.41 0.0 0 0.00 0.00 0.00 0.00
09/03/26 9:29:24 PM 34 3.0 19.0 61 51 73.5 70.5 29.887 7.41 0.0 0 0.00 0.00 0.00 0.00
09/03/26 9:30:37 PM 28 2.0 19.0 61 51 73.4 70.5 29.888 7.41 0.0 0 0.00 0.00 0.00 0.00
09/03/26 9:31:29 PM 30 2.0 19.0 61 51 73.5 70.5 29.892 7.41 0.0 0 0.00 0.00 0.00 0.00
09/03/26 9:32:20 PM 31 1.0 19.0 61 51 73.4 70.4 29.891 7.41 0.0 0 0.00 0.00 0.00 0.00
09/03/26 9:33:33 PM 32 2.0 19.0 61 51 73.4 70.4 29.888 7.41 0.0 0 0.00 0.00 0.00 0.00
09/03/26 9:34:21 PM 32 3.0 19.0 61 51 73.4 70.4 29.888 7.41 0.0 0 0.00 0.00 0.00 0.00
09/03/26 9:35:31 PM 31 2.0 19.0 61 51 73.3 70.4 29.891 7.41 0.0 0 0.00 0.00 0.00 0.00
09/03/26 9:36:23 PM 32 0.0 19.0 61 51 73.3 70.4 29.892 7.41 0.0 0 0.00 0.00 0.00 0.00
09/03/26 9:37:35 PM 32 5.0 19.0 61 51 73.3 70.4 29.891 7.41 0.0 0 0.00 0.00 0.00 0.00
09/03/26 9:38:27 PM 30 2.0 19.0 61 52 73.3 70.4 29.892 7.41 0.0 0 0.00 0.00 0.00 0.00
09/03/26 9:39:36 PM 32 1.0 19.0 61 52 73.3 70.4 29.893 7.41 0.0 0 0.00 0.00 0.00 0.00
09/03/26 9:40:28 PM 34 0.0 19.0 61 52 73.3 70.4 29.893 7.41 0.0 0 0.00 0.00 0.00 0.00
09/03/26 9:41:19 PM 29 0.0 19.0 61 52 73.3 70.3 29.895 7.41 0.0 0 0.00 0.00 0.00 0.00
09/03/26 9:42:29 PM 29 0.0 19.0 61 52 73.3 70.3 29.892 7.41 0.0 0 0.00 0.00 0.00 0.00
09/03/26 9:43:21 PM 31 0.0 19.0 61 52 73.3 70.4 29.895 7.41 0.0 0 0.00 0.00 0.00 0.00
09/03/26 9:44:30 PM 32 0.0 19.0 61 52 73.2 70.3 29.895 7.41 0.0 0 0.00 0.00 0.00 0.00
09/03/26 9:45:25 PM 31 0.0 19.0 61 52 73.2 70.3 29.895 7.41 0.0 0 0.00 0.00 0.00 0.00
09/03/26 9:46:16 PM 32 0.0 19.0 61 53 73.2 70.3 29.896 7.41 0.0 0 0.00 0.00 0.00 0.00
09/03/26 9:47:29 PM 28 0.0 19.0 61 53 73.2 70.2 29.894 7.41 0.0 0 0.00 0.00 0.00 0.00
09/03/26 9:48:21 PM 25 0.0 19.0 61 53 73.2 70.2 29.895 7.41 0.0 0 0.00 0.00 0.00 0.00
09/03/26 9:49:33 PM 32 0.0 19.0 61 53 73.2 70.2 29.896 7.41 0.0 0 0.00 0.00 0.00 0.00
09/03/26 9:50:19 PM 28 0.0 19.0 61 53 73.1 70.1 29.900 7.41 0.0 0 0.00 0.00 0.00 0.00
09/03/26 9:51:31 PM 28 0.0 19.0 61 53 73.1 70.1 29.899 7.41 0.0 0 0.00 0.00 0.00 0.00
09/03/26 9:52:23 PM 35 0.0 19.0 61 53 73.1 70.1 29.900 7.41 0.0 0 0.00 0.00 0.00 0.00
09/03/26 9:53:36 PM 28 0.0 19.0 61 54 73.0 70.0 29.901 7.41 0.0 0 0.00 0.00 0.00 0.00
09/03/26 9:54:27 PM 28 0.0 19.0 61 54 73.0 70.0 29.900 7.41 0.0 0 0.00 0.00 0.00 0.00
09/03/26 9:55:37 PM 31 0.0 19.0 61 54 73.0 69.9 29.903 7.41 0.0 0 0.00 0.00 0.00 0.00
09/03/26 9:56:25 PM 32 0.0 19.0 61 54 73.0 69.9 29.899 7.41 0.0 0 0.00 0.00 0.00 0.00
09/03/26 9:57:20 PM 31 0.0 19.0 61 54 73.0 69.9 29.898 7.41 0.0 0 0.00 0.00 0.00 0.00
09/03/26 9:58:33 PM 34 0.0 19.0 61 54 73.0 69.8 29.902 7.41 0.0 0 0.00 0.00 0.00 0.00
09/03/26 9:59:24 PM 31 0.0 19.0 61 54 72.9 69.8 29.901 7.41 0.0 0 0.00 0.00 0.00 0.00
09/03/26 10:00:19 PM 31 0.0 19.0 61 55 72.9 69.7 29.900 7.41 0.0 0 0.00 0.00 0.00 0.00
09/03/26 10:01:25 PM 32 0.0 19.0 61 55 72.9 69.7 29.902 7.41 0.0 0 0.00 0.00 0.00 0.00
09/03/26 10:02:17 PM 32 0.0 19.0 61 55 72.9 69.7 29.902 7.41 0.0 0 0.00 0.00 0.00 0.00
09/03/26 10:03:27 PM 32 0.0 19.0 61 55 72.8 69.6 29.904 7.41 0.0 0 0.00 0.00 0.00 0.00
09/03/26 10:04:21 PM 35 0.0 19.0 61 55 72.8 69.5 29.902 7.41 0.0 0 0.00 0.00 0.00 0.00
09/03/26 10:05:31 PM 29 0.0 19.0 61 56 72.8 69.5 29.905 7.41 0.0 0 0.00 0.00 0.00 0.00
09/03/26 10:06:19 PM 30 0.0 19.0 61 56 72.7 69.5 29.905 7.41 0.0 0 0.00 0.00 0.00 0.00
09/03/26 10:07:32 PM 31 0.0 19.0 61 56 72.7 69.5 29.902 7.41 0.0 0 0.00 0.00 0.00 0.00
09/03/26 10:08:23 PM 32 0.0 19.0 61 56 72.7 69.4 29.901 7.41 0.0 0 0.00 0.00 0.00 0.00
09/03/26 10:09:36 PM 30 0.0 19.0 61 56 72.7 69.4 29.904 7.41 0.0 0 0.00 0.00 0.00 0.00
09/03/26 10:10:28 PM 32 0.0 19.0 61 56 72.7 69.4 29.903 7.41 0.0 0 0.00 0.00 0.00 0.00
09/03/26 10:11:34 PM 31 0.0 19.0 61 56 72.7 69.4 29.902 7.41 0.0 0 0.00 0.00 0.00 0.00
09/03/26 10:12:26 PM 34 0.0 19.0 61 56 72.6 69.3 29.901 7.41 0.0 0 0.00 0.00 0.00 0.00
09/03/26 10:13:18 PM 28 0.0 19.0 61 56 72.7 69.3 29.902 7.41 0.0 0 0.00 0.00 0.00 0.00
09/03/26 10:14:30 PM 32 0.0 19.0 61 56 72.6 69.3 29.904 7.41 0.0 0 0.00 0.00 0.00 0.00
09/03/26 10:15:46 PM 31 0.0 19.0 61 56 72.6 69.2 29.904 7.41 0.0 0 0.00 0.00 0.00 0.00
09/03/26 10:16:37 PM 28 0.0 19.0 61 57 72.7 69.2 29.904 7.41 0.0 0 0.00 0.00 0.00 0.00
09/03/26 10:17:23 PM 29 0.0 19.0 61 57 72.6 69.2 29.902 7.41 0.0 0 0.00 0.00 0.00 0.00
09/03/26 10:18:18 PM 30 0.0 19.0 61 57 72.7 69.1 29.902 7.41 0.0 0 0.00 0.00 0.00 0.00
09/03/26 10:19:27 PM 32 0.0 19.0 61 57 72.7 69.0 29.903 7.41 0.0 0 0.00 0.00 0.00 0.00
09/03/26 10:20:19 PM 32 0.0 19.0 61 57 72.7 69.0 29.903 7.41 0.0 0 0.00 0.00 0.00 0.00
09/03/26 10:21:31 PM 31 0.0 19.0 61 57 72.7 69.0 29.903 7.41 0.0 0 0.00 0.00 0.00 0.00
09/03/26 10:22:20 PM 30 0.0 19.0 61 57 72.6 69.0 29.902 7.41 0.0 0 0.00 0.00 0.00 0.00
09/03/26 10:23:33 PM 30 0.0 19.0 61 57 72.7 68.9 29.902 7.41 0.0 0 0.00 0.00 0.00 0.00
09/03/26 10:24:24 PM 34 0.0 19.0 61 57 72.7 68.8 29.901 7.41 0.0 0 0.00 0.00 0.00 0.00
09/03/26 10:25:37 PM 28 0.0 19.0 61 57 72.7 68.8 29.902 7.41 0.0 0 0.00 0.00 0.00 0.00
09/03/26 10:26:29 PM 32 0.0 19.0 61 57 72.7 68.8 29.901 7.41 0.0 0 0.00 0.00 0.00 0.00
09/03/26 10:27:20 PM 31 0.0 19.0 61 57 72.7 68.7 29.901 7.41 0.0 0 0.00 0.00 0.00 0.00
09/03/26 10:28:27 PM 30 0.0 19.0 61 57 72.7 68.7 29.900 7.41 0.0 0 0.00 0.00 0.00 0.00
09/03/26 10:29:21 PM 32 0.0 19.0 61 57 72.7 68.6 29.901 7.41 0.0 0 0.00 0.00 0.00 0.00
09/03/26 10:30:34 PM 30 0.0 19.0 61 57 72.7 68.6 29.901 7.41 0.0 0 0.00 0.00 0.00 0.00
09/03/26 10:31:26 PM 32 0.0 19.0 61 57 72.7 68.6 29.901 7.41 0.0 0 0.00 0.00 0.00 0.00
09/03/26 10:32:17 PM 32 0.0 19.0 61 57 72.7 68.5 29.901 7.41 0.0 0 0.00 0.00 0.00 0.00
09/03/26 10:33:24 PM 29 0.0 19.0 61 57 72.7 68.5 29.900 7.41 0.0 0 0.00 0.00 0.00 0.00
09/03/26 10:34:18 PM 31 0.0 19.0 61 57 72.7 68.5 29.901 7.41 0.0 0 0.00 0.00 0.00 0.00
09/03/26 10:35:31 PM 31 0.0 19.0 61 57 72.7 68.4 29.900 7.41 0.0 0 0.00 0.00 0.00 0.00
09/03/26 10:36:20 PM 30 0.0 19.0 61 57 72.7 68.3 29.900 7.41 0.0 0 0.00 0.00 0.00 0.00
09/03/26 10:37:35 PM 32 0.0 19.0 61 57 72.7 68.3 29.902 7.41 0.0 0 0.00 0.00 0.00 0.00
09/03/26 10:38:24 PM 32 0.0 19.0 61 57 72.7 68.2 29.901 7.41 0.0 0 0.00 0.00 0.00 0.00
09/03/26 10:39:37 PM 32 0.0 19.0 61 57 72.7 68.2 29.902 7.41 0.0 0 0.00 0.00 0.00 0.00
09/03/26 10:40:28 PM 32 0.0 19.0 61 57 72.7 68.1 29.901 7.41 0.0 0 0.00 0.00 0.00 0.00
09/03/26 10:41:20 PM 32 0.0 19.0 61 57 72.7 68.1 29.902 7.41 0.0 0 0.00 0.00 0.00 0.00
09/03/26 10:42:32 PM 28 0.0 19.0 61 57 72.7 68.0 29.902 7.41 0.0 0 0.00 0.00 0.00 0.00
09/03/26 10:43:24 PM 31 0.0 19.0 61 57 72.7 68.0 29.902 7.41 0.0 0 0.00 0.00 0.00 0.00
09/03/26 10:44:31 PM 32 0.0 19.0 61 57 72.7 67.9 29.902 7.41 0.0 0 0.00 0.00 0.00 0.00
09/03/26 10:45:25 PM 28 0.0 19.0 61 57 72.7 67.9 29.902 7.41 0.0 0 0.00 0.00 0.00 0.00
09/03/26 10:46:35 PM 32 0.0 19.0 61 57 72.7 67.8 29.903 7.41 0.0 0 0.00 0.00 0.00 0.00
09/03/26 10:47:26 PM 31 0.0 19.0 61 57 72.8 67.8 29.902 7.41 0.0 0 0.00 0.00 0.00 0.00
09/03/26 10:48:21 PM 34 0.0 19.0 61 57 72.7 67.7 29.902 7.41 0.0 0 0.00 0.00 0.00 0.00
09/03/26 10:49:28 PM 28 0.0 19.0 61 57 72.7 67.7 29.902 7.41 0.0 0 0.00 0.00 0.00 0.00
09/03/26 10:50:19 PM 31 0.0 19.0 61 57 72.6 67.6 29.901 7.41 0.0 0 0.00 0.00 0.00 0.00
09/03/26 10:51:29 PM 31 0.0 19.0 61 58 72.7 67.6 29.902 7.41 0.0 0 0.00 0.00 0.00 0.00
09/03/26 10:52:23 PM 31 0.0 19.0 61 58 72.7 67.6 29.903 7.41 0.0 0 0.00 0.00 0.00 0.00
09/03/26 10:53:33 PM 31 0.0 19.0 61 58 72.7 67.5 29.901 7.41 0.0 0 0.00 0.00 0.00 0.00
09/03/26 10:54:22 PM 31 0.0 19.0 61 58 72.7 67.5 29.901 7.41 0.0 0 0.00 0.00 0.00 0.00
09/03/26 10:55:34 PM 32 0.0 19.0 61 59 72.7 67.4 29.902 7.41 0.0 0 0.00 0.00 0.00 0.00
09/03/26 10:56:26 PM 31 0.0 19.0 61 59 72.7 67.4 29.902 7.41 0.0 0 0.00 0.00 0.00 0.00
09/03/26 10:57:17 PM 28 0.0 19.0 61 59 72.7 67.4 29.901 7.41 0.0 0 0.00 0.00 0.00 0.00
09/03/26 10:58:30 PM 28 0.0 19.0 61 60 72.7 67.3 29.901 7.41 0.0 0 0.00 0.00 0.00 0.00
09/03/26 10:59:22 PM 31 0.0 19.0 61 60 72.7 67.3 29.900 7.41 0.0 0 0.00 0.00 0.00 0.00
09/03/26 11:00:31 PM 31 0.0 19.0 61 60 72.7 67.2 29.901 7.41 0.0 0 0.00 0.00 0.00 0.00
09/03/26 11:01:23 PM 28 0.0 19.0 61 60 72.7 67.2 29.901 7.41 0.0 0 0.00 0.00 0.00 0.00
09/03/26 11:02:36 PM 31 0.0 19.0 61 60 72.7 67.1 29.901 7.41 0.0 0 0.00 0.00 0.00 0.00
09/03/26 11:03:27 PM 32 0.0 19.0 61 60 72.8 67.1 29.899 7.41 0.0 0 0.00 0.00 0.00 0.00
09/03/26 11:04:19 PM 32 0.0 19.0 61 60 72.7 67.0 29.901 7.41 0.0 0 0.00 0.00 0.00 0.00
09/03/26 11:05:25 PM 35 0.0 19.0 61 60 72.7 67.0 29.901 7.41 0.0 0 0.00 0.00 0.00 0.00
09/03/26 11:06:17 PM 31 0.0 19.0 61 60 72.7 66.9 29.900 7.41 0.0 0 0.00 0.00 0.00 0.00
09/03/26 11:07:30 PM 30 0.0 19.0 61 60 72.7 66.8 29.902 7.41 0.0 0 0.00 0.00 0.00 0.00
09/03/26 11:08:21 PM 31 0.0 19.0 61 60 72.7 66.8 29.901 7.41 0.0 0 0.00 0.00 0.00 0.00
09/03/26 11:09:31 PM 31 0.0 19.0 61 60 72.6 66.8 29.902 7.41 0.0 0 0.00 0.00 0.00 0.00
09/03/26 11:10:20 PM 31 0.0 19.0 61 60 72.6 66.8 29.903 7.41 0.0 0 0.00 0.00 0.00 0.00
09/03/26 11:11:32 PM 32 0.0 19.0 61 61 72.7 66.7 29.901 7.41 0.0 0 0.00 0.00 0.00 0.00
09/03/26 11:12:24 PM 31 0.0 19.0 61 61 72.6 66.7 29.902 7.41 0.0 0 0.00 0.00 0.00 0.00
09/03/26 11:13:18 PM 31 0.0 19.0 61 61 72.7 66.7 29.902 7.41 0.0 0 0.00 0.00 0.00 0.00
09/03/26 11:14:28 PM 31 0.0 19.0 61 61 72.6 66.7 29.903 7.41 0.0 0 0.00 0.00 0.00 0.00
09/03/26 11:15:44 PM 28 0.0 19.0 61 61 72.6 66.7 29.899 7.41 0.0 0 0.00 0.00 0.00 0.00
09/03/26 11:16:29 PM 31 0.0 19.0 61 61 72.6 66.7 29.902 7.41 0.0 0 0.00 0.00 0.00 0.00
09/03/26 11:17:21 PM 32 0.0 19.0 61 61 72.7 66.6 29.902 7.41 0.0 0 0.00 0.00 0.00 0.00
09/03/26 11:18:34 PM 31 0.0 19.0 61 61 72.6 66.6 29.902 7.41 0.0 0 0.00 0.00 0.00 0.00
09/03/26 11:19:25 PM 30 0.0 19.0 61 61 72.6 66.6 29.902 7.41 0.0 0 0.00 0.00 0.00 0.00
09/03/26 11:20:17 PM 32 0.0 19.0 61 61 72.6 66.5 29.903 7.41 0.0 0 0.00 0.00 0.00 0.00
09/03/26 11:21:24 PM 31 0.0 19.0 61 61 72.6 66.5 29.905 7.41 0.0 0 0.00 0.00 0.00 0.00
09/03/26 11:22:36 PM 28 0.0 19.0 61 61 72.6 66.5 29.902 7.41 0.0 0 0.00 0.00 0.00 0.00
09/03/26 11:23:28 PM 32 0.0 19.0 61 61 72.6 66.4 29.905 7.41 0.0 0 0.00 0.00 0.00 0.00
09/03/26 11:24:20 PM 32 0.0 19.0 61 62 72.6 66.4 29.903 7.41 0.0 0 0.00 0.00 0.00 0.00
09/03/26 11:25:32 PM 28 0.0 19.0 61 62 72.6 66.4 29.901 7.41 0.0 0 0.00 0.00 0.00 0.00
09/03/26 11:26:24 PM 32 0.0 19.0 61 62 72.6 66.3 29.902 7.41 0.0 0 0.00 0.00 0.00 0.00
09/03/26 11:27:30 PM 32 0.0 19.0 61 62 72.6 66.3 29.903 7.41 0.0 0 0.00 0.00 0.00 0.00
09/03/26 11:28:22 PM 30 0.0 19.0 61 62 72.6 66.3 29.902 7.41 0.0 0 0.00 0.00 0.00 0.00
09/03/26 11:29:35 PM 32 0.0 19.0 61 62 72.6 66.3 29.903 7.41 0.0 0 0.00 0.00 0.00 0.00
09/03/26 11:30:29 PM 31 0.0 19.0 61 63 72.6 66.2 29.904 7.41 0.0 0 0.00 0.00 0.00 0.00
09/03/26 11:31:21 PM 34 0.0 19.0 61 63 72.6 66.2 29.901 7.41 0.0 0 0.00 0.00 0.00 0.00
09/03/26 11:32:28 PM 31 0.0 19.0 61 63 72.6 66.2 29.902 7.41 0.0 0 0.00 0.00 0.00 0.00
09/03/26 11:33:19 PM 31 0.0 19.0 61 63 72.6 66.2 29.903 7.41 0.0 0 0.00 0.00 0.00 0.00
09/03/26 11:34:32 PM 32 0.0 19.0 61 63 72.5 66.1 29.902 7.41 0.0 0 0.00 0.00 0.00 0.00
09/03/26 11:35:24 PM 32 0.0 19.0 61 63 72.6 66.1 29.899 7.41 0.0 0 0.00 0.00 0.00 0.00
09/03/26 11:36:18 PM 32 0.0 19.0 61 63 72.5 66.1 29.901 7.41 0.0 0 0.00 0.00 0.00 0.00
09/03/26 11:37:25 PM 31 0.0 19.0 61 63 72.6 66.0 29.901 7.41 0.0 0 0.00 0.00 0.00 0.00
09/03/26 11:38:16 PM 27 0.0 19.0 61 63 72.6 66.0 29.901 7.41 0.0 0 0.00 0.00 0.00 0.00
09/03/26 11:39:29 PM 32 0.0 19.0 61 64 72.6 66.0 29.904 7.41 0.0 0 0.00 0.00 0.00 0.00
09/03/26 11:40:21 PM 28 0.0 19.0 61 64 72.6 66.0 29.902 7.41 0.0 0 0.00 0.00 0.00 0.00
09/03/26 11:41:30 PM 28 0.0 19.0 61 64 72.5 66.0 29.903 7.41 0.0 0 0.00 0.00 0.00 0.00
09/03/26 11:42:25 PM 31 0.0 19.0 61 64 72.5 65.9 29.905 7.41 0.0 0 0.00 0.00 0.00 0.00
09/03/26 11:43:32 PM 30 0.0 19.0 61 64 72.5 65.9 29.904 7.41 0.0 0 0.00 0.00 0.00 0.00
09/03/26 11:44:23 PM 29 0.0 19.0 61 64 72.6 65.9 29.906 7.41 0.0 0 0.00 0.00 0.00 0.00
09/03/26 11:45:57 PM 31 0.0 19.0 61 64 72.6 65.9 29.901 7.41 0.0 0 0.00 0.00 0.00 0.00
09/03/26 11:46:28 PM 32 0.0 19.0 61 64 72.5 65.8 29.906 7.41 0.0 0 0.00 0.00 0.00 0.00
09/03/26 11:47:22 PM 34 0.0 19.0 61 64 72.6 65.8 29.903 7.41 0.0 0 0.00 0.00 0.00 0.00
09/03/26 11:48:29 PM 34 0.0 19.0 61 65 72.5 65.8 29.904 7.41 0.0 0 0.00 0.00 0.00 0.00
09/03/26 11:49:21 PM 31 0.0 19.0 61 65 72.5 65.8 29.901 7.41 0.0 0 0.00 0.00 0.00 0.00
09/03/26 11:50:33 PM 31 0.0 19.0 61 65 72.5 65.7 29.904 7.41 0.0 0 0.00 0.00 0.00 0.00
09/03/26 11:51:25 PM 32 0.0 19.0 61 65 72.5 65.6 29.903 7.41 0.0 0 0.00 0.00 0.00 0.00
09/03/26 11:52:17 PM 28 0.0 19.0 61 65 72.5 65.6 29.902 7.41 0.0 0 0.00 0.00 0.00 0.00
09/03/26 11:53:26 PM 31 0.0 19.0 61 65 72.5 65.6 29.902 7.41 0.0 0 0.00 0.00 0.00 0.00
09/03/26 11:54:36 PM 30 0.0 19.0 61 65 72.5 65.5 29.903 7.41 0.0 0 0.00 0.00 0.00 0.00
09/03/26 11:55:28 PM 31 0.0 19.0 61 65 72.5 65.5 29.900 7.41 0.0 0 0.00 0.00 0.00 0.00
09/03/26 11:56:19 PM 31 0.0 19.0 61 65 72.4 65.4 29.902 7.41 0.0 0 0.00 0.00 0.00 0.00
09/03/26 11:57:32 PM 31 0.0 19.0 61 65 72.4 65.4 29.902 7.41 0.0 0 0.00 0.00 0.00 0.00
09/03/26 11:58:24 PM 31 0.0 19.0 61 66 72.4 65.4 29.900 7.41 0.0 0 0.00 0.00 0.00 0.00

University Police wind advisory reference

For campus closure information please call the campus Emergency Hotline at (909) 537-5999

© All rights reserved. Unauthorized duplication or distribution is prohibited

Never base important decisions on this or any weather information obtained from the Internet

California State University, San Bernardino
5500 University Parkway, San Bernardino, CA. 92407
Phone: (909) 537-5108, Email: Weather Webmaster
Last Updated: